Simultaneous Nadir Overpasses (SNOs) Predictions

Prediction of SNOs between NOAA-19 and TERRA Satellite Orbit:

Table of predicted SNOs for the next 14.0 days since TLE Epoch: 2/2/2013
Index Date (NOAA-19) Time (NOAA-19) Lat,Lon (NOAA-19) SZA (NOAA-19 ) Date (TERRA) Time (TERRA) Lat,Lon (TERRA) SZA (TERRA ) Distance(km) Time Diff (sec)
1 02/02/2013 10:45:12 -69.32,-161.77 94.05 02/02/2013 10:46:13 -69.33,-161.71 94.05 2.46 61
2 02/02/2013 11:36:14 69.18, 5.66 85.80 02/02/2013 11:35:40 69.17, 5.72 85.79 3.16 34
3 02/04/2013 15:29:38 -69.29, 127.17 94.74 02/04/2013 15:30:29 -69.30, 127.18 94.73 1.05 51
4 02/04/2013 16:20:40 69.13, -65.37 85.10 02/04/2013 16:19:57 69.14, -65.39 85.10 0.95 43
5 02/06/2013 20:14:05 -69.27, 56.10 95.43 02/06/2013 20:14:46 -69.26, 56.06 95.44 1.81 41
6 02/06/2013 21:05:07 69.14,-136.48 84.43 02/06/2013 21:04:13 69.15,-136.44 84.44 2.07 54
7 02/09/2013 00:58:32 -69.26, -14.98 96.14 02/09/2013 00:59:02 -69.27, -14.99 96.13 1.65 30
8 02/09/2013 01:49:33 69.11, 152.46 83.71 02/09/2013 01:48:30 69.10, 152.43 83.70 1.42 63
9 02/11/2013 05:42:59 -69.25, -86.09 96.85 02/11/2013 05:43:18 -69.27, -86.06 96.84 2.23 19
10 02/11/2013 06:33:59 69.09, 81.39 82.97 02/11/2013 06:32:46 69.10, 81.37 82.99 1.63 73
11 02/13/2013 09:36:43 70.28, 34.02 83.50 02/13/2013 09:37:49 70.20, 36.52 83.35 94.23 66
12 02/13/2013 10:27:26 -69.27,-157.20 97.58 02/13/2013 10:27:34 -69.27,-157.13 97.58 2.82 8
13 02/13/2013 11:18:19 68.76, 10.75 81.90 02/13/2013 11:17:07 68.82, 9.94 81.98 33.17 72
14 02/15/2013 14:21:02 69.91, -36.50 82.36 02/15/2013 14:22:12 69.80, -35.11 82.21 54.76 70
15 02/15/2013 15:11:52 -69.23, 131.74 98.36 02/15/2013 15:11:50 -69.26, 131.79 98.34 3.05 2




NCC Satellite Simultaneous Nadir Overpasses (SNOs) Prediction Service
